Location: Perryvale
(54.4667°N, 113.3833°W)
Time: 23:25:11
(UTC+00:00)

Vanguard 1 - Pass Details

Date: 22 May 2024
Orbit: 652 x 3825 km, 34.2° (Epoch: 13 June)

Event Time Altitude Azimuth Distance (km) Brightness Sun altitude
Rises 07:59:13 0° 260° (W) 5,798 13.8 -14.8°
Reaches altitude 10° 08:03:04 10° 251° (WSW) 5,195 13.5 -14.7°
Maximum altitude 08:16:43 33° 196° (SSW) 4,655 12.9 -14.4°
Drops below altitude 10° 08:35:03 10° 144° (SE) 6,922 14.0 -13.7°
Sets 08:41:22 0° 136° (SE) 7,917 14.4 -13.5°
